Location: Unspecified
(47.6579°N, 23.5637°E)
Time: 11:06:07
(UTC+02:00)

Envisat - Pass Details

Date: 08 December 2021
Orbit: 764 x 766 km, 98.2° (Epoch: 26 January)

Event Time Altitude Azimuth Distance (km) Brightness Sun altitude
Rises 06:41:21 0° 4° (N) 3,245 6.1 -12.8°
Reaches altitude 10° 06:43:57 10° 353° (N) 2,314 5.2 -12.4°
Maximum altitude 06:48:10 27° 297° (WNW) 1,449 3.9 -11.7°
Drops below altitude 10° 06:52:22 10° 241° (WSW) 2,301 5.1 -11.1°
Sets 06:54:57 0° 229° (SW) 3,222 6.0 -10.7°
